Orbital Elements
P/2016 J1-A (PANSTARRS)
Epoch = 2016 June 21.0 TT
T = 2016 June 24.21905 TT Peri. = 46.58721
e = 0.2282575 Node = 199.85614 2000.0
q = 2.4479989 AU Incl. = 14.33013
a = 3.1720411 AU n = 0.17446000 P = 5.65 years
P/2016 J1-B (PANSTARRS)
Epoch = 2016 June 21.0 TT
T = 2016 June 24.11589 TT Peri. = 46.57644
e = 0.2282189 Node = 199.85585 2000.0
q = 2.4480697 AU Incl. = 14.33130
a = 3.1719740 AU n = 0.17446553 P = 5.65 years
|